Location: Newark
(45.5500°N, 10.4167°E)
Time: 14:03:34
(UTC+00:00)

N. Korean satellite - Visible Passes

Search period start: 13 December 2019 00:00
Search period end: 23 December 2019 00:00
Orbit: 455 x 507 km, 97.2° (Epoch: 12 December)

Date Brightness Start Highest point End Pass type
(mag) Time Alt. Az. Time Alt. Az. Time Alt. Az.
13 Dec 6.4 05:19:09 10° N 05:22:41 84° WNW 05:26:08 10° SSW visible
13 Dec 10.0 17:31:48 10° WSW 17:33:31 13° W 17:35:14 10° WNW visible
14 Dec 7.7 04:53:49 10° NNE 04:57:12 44° E 05:00:31 10° S visible
14 Dec 9.2 17:04:50 10° SSW 17:07:53 24° W 17:10:55 10° NW visible
15 Dec 9.1 04:28:52 10° NE 04:31:38 21° E 04:34:21 10° SE visible
15 Dec 7.6 06:02:06 10° NNW 06:05:00 24° WNW 06:07:51 10° SW visible
15 Dec 7.7 16:38:46 10° S 16:42:20 48° W 16:45:55 10° NNW visible
16 Dec 10.0 04:05:00 10° ENE 04:05:58 11° E 04:06:56 10° ESE visible
16 Dec 6.6 05:36:17 10° N 05:39:41 49° WNW 05:43:01 10° SSW visible
16 Dec 6.6 16:13:12 10° SSE 16:16:54 80° ENE 16:20:33 10° N visible
17 Dec 6.6 05:10:46 10° NNE 05:14:16 76° ESE 05:17:42 10° S visible
17 Dec 9.8 17:22:48 10° SW 17:25:04 16° W 17:27:20 10° NW visible
18 Dec 8.2 04:45:33 10° NNE 04:48:46 34° E 04:51:55 10° SSE visible
18 Dec 8.8 16:56:13 10° SSW 16:59:28 29° W 17:02:42 10° NNW visible
19 Dec 9.5 04:20:47 10° NE 04:23:10 17° E 04:25:31 10° SE visible
19 Dec 7.3 05:53:33 10° N 05:56:38 30° WNW 05:59:40 10° SW visible
19 Dec 7.2 16:30:19 10° S 16:33:57 61° W 16:37:33 10° NNW visible
20 Dec 6.4 05:27:50 10° N 05:31:17 63° WNW 05:34:40 10° SSW visible
21 Dec 7.0 05:02:25 10° NNE 05:05:50 58° E 05:09:12 10° S visible
21 Dec 9.6 17:13:57 10° SW 17:16:36 19° W 17:19:14 10° NW visible
22 Dec 8.6 04:37:17 10° NE 04:40:17 27° E 04:43:15 10° SSE visible
22 Dec 7.8 06:10:59 10° NNW 06:13:32 19° WNW 06:16:02 10° WSW visible
22 Dec 8.3 16:47:38 10° SSW 16:51:02 36° W 16:54:24 10° NNW visible
